Location: The Saddle
(36.8333°N, 80.3417°W)
Time: 07:43:49
(UTC-05:00)

A-11 Canister half - Pass Details

Date: 13 December 2023
Orbit: 1512 x 1687 km, 47.2° (Epoch: 27 February)

Event Time Altitude Azimuth Distance (km) Brightness Sun altitude
Rises 06:02:27 0° 299° (WNW) 4,862 - -16.1°
Reaches altitude 10° 06:05:53 10° 291° (WNW) 3,894 - -15.4°
Exits shadow 06:08:23 19° 281° (WNW) 3,268 10.1 -15.0°
Maximum altitude 06:14:37 36° 230° (SW) 2,447 9.8 -13.8°
Drops below altitude 10° 06:23:28 10° 168° (SSE) 3,941 11.6 -12.1°
Sets 06:27:00 0° 160° (SSE) 4,926 12.3 -11.4°
